| time (UTC) | temp C | wind direction | speed KPH | gust KPH | rain 1hr cm | rain 24hr cm | rain mn cm | humidity % | barometer mb |
| 20260505114558 | 17 | 72 | 0.0 | 4.8 | 0.00 | 0.03 | 0.00 | 75 | 1010.1 |
| 20260505114038 | 17 | 169 | 0.0 | 6.4 | 0.00 | 0.03 | 0.00 | 75 | 1010.2 |
| 20260505113542 | 17 | 117 | 0.0 | 6.4 | 0.00 | 0.03 | 0.00 | 75 | 1010.2 |
| 20260505113052 | 17 | 100 | 0.0 | 8.0 | 0.00 | 0.03 | 0.00 | 75 | 1010.2 |
| 20260505112555 | 17 | 150 | 0.0 | 9.7 | 0.00 | 0.03 | 0.00 | 74 | 1010.0 |
| 20260505112103 | 17 | 106 | 0.0 | 4.8 | 0.00 | 0.03 | 0.00 | 74 | 1009.5 |
| 20260505111559 | 17 | 84 | 0.0 | 4.8 | 0.00 | 0.03 | 0.00 | 74 | 1009.6 |
| 20260505111103 | 17 | 132 | 0.0 | 4.8 | 0.00 | 0.03 | 0.00 | 74 | 1009.6 |
| 20260505110505 | 17 | 123 | 0.0 | 4.8 | 0.00 | 0.03 | 0.00 | 74 | 1009.2 |
| 20260505102027 | 17 | 115 | 0.0 | 6.4 | 0.00 | 0.03 | 0.00 | 72 | 1009.0 |
| 20260505101539 | 17 | 91 | 0.0 | 6.4 | 0.00 | 0.03 | 0.00 | 72 | 1009.0 |
| 20260505101044 | 17 | 128 | 0.0 | 6.4 | 0.00 | 0.03 | 0.00 | 72 | 1009.0 |
| 20260505100548 | 17 | 148 | 0.0 | 3.2 | 0.00 | 0.03 | 0.00 | 72 | 1009.0 |
| 20260505100100 | 17 | 142 | 0.0 | 8.0 | 0.00 | 0.03 | 0.00 | 72 | 1009.0 |
| 20260505095545 | 17 | 180 | 1.6 | 8.0 | 0.00 | 0.03 | 0.00 | 72 | 1008.8 |
| 20260505095054 | 17 | 149 | 1.6 | 8.0 | 0.00 | 0.03 | 0.00 | 72 | 1008.8 |
| 20260505094607 | 17 | 160 | 1.6 | 9.7 | 0.00 | 0.03 | 0.00 | 71 | 1008.8 |
| 20260505094001 | 17 | 163 | 1.6 | 9.7 | 0.00 | 0.03 | 0.00 | 71 | 1008.7 |
| 20260505093511 | 17 | 167 | 1.6 | 9.7 | 0.00 | 0.03 | 0.00 | 71 | 1008.7 |
| 20260505093100 | 17 | 229 | 3.2 | 14.5 | 0.00 | 0.03 | 0.00 | 71 | 1008.7 |
| 20260505092557 | 17 | 176 | 4.8 | 14.5 | 0.00 | 0.03 | 0.00 | 70 | 1008.8 |
| 20260505092038 | 17 | 141 | 1.6 | 12.9 | 0.00 | 0.03 | 0.00 | 70 | 1008.6 |
| 20260505091548 | 17 | 202 | 3.2 | 14.5 | 0.00 | 0.03 | 0.00 | 70 | 1008.5 |
| 20260505091051 | 17 | 219 | 3.2 | 14.5 | 0.00 | 0.03 | 0.00 | 70 | 1008.4 |
| 20260505090558 | 17 | 89 | 3.2 | 16.1 | 0.00 | 0.03 | 0.00 | 69 | 1008.4 |
| 20260505090111 | 17 | 264 | 3.2 | 16.1 | 0.00 | 0.03 | 0.00 | 69 | 1008.5 |
| 20260505085556 | 18 | 207 | 6.4 | 19.3 | 0.00 | 0.03 | 0.00 | 69 | 1008.6 |
| 20260505085047 | 17 | 181 | 3.2 | 12.9 | 0.00 | 0.03 | 0.00 | 69 | 1008.7 |
| 20260505084552 | 17 | 153 | 1.6 | 16.1 | 0.00 | 0.03 | 0.00 | 69 | 1008.6 |
| 20260505084057 | 17 | 127 | 4.8 | 16.1 | 0.00 | 0.03 | 0.00 | 69 | 1008.8 |
| 20260505083604 | 17 | 157 | 3.2 | 16.1 | 0.00 | 0.03 | 0.00 | 68 | 1008.8 |
| 20260505083010 | 17 | 149 | 1.6 | 16.1 | 0.00 | 0.03 | 0.00 | 68 | 1008.8 |
| 20260505082600 | 17 | 141 | 3.2 | 14.5 | 0.00 | 0.03 | 0.00 | 68 | 1008.8 |
| 20260505082049 | 17 | 237 | 3.2 | 12.9 | 0.00 | 0.03 | 0.00 | 68 | 1008.9 |
| 20260505081553 | 17 | 157 | 4.8 | 12.9 | 0.00 | 0.03 | 0.00 | 68 | 1009.0 |
| 20260505081059 | 17 | 156 | 3.2 | 11.3 | 0.00 | 0.03 | 0.00 | 68 | 1009.1 |
| 20260505080550 | 17 | 124 | 3.2 | 11.3 | 0.00 | 0.03 | 0.00 | 68 | 1009.1 |
| 20260505080059 | 17 | 204 | 3.2 | 11.3 | 0.00 | 0.03 | 0.00 | 68 | 1009.1 |
| 20260505075604 | 18 | 86 | 1.6 | 11.3 | 0.00 | 0.03 | 0.00 | 67 | 1009.1 |
| 20260505075007 | 18 | 103 | 1.6 | 9.7 | 0.00 | 0.03 | 0.00 | 67 | 1009.2 |
| 20260505074006 | 18 | 129 | 0.0 | 11.3 | 0.00 | 0.03 | 0.00 | 67 | 1009.1 |
| 20260505073601 | 18 | 112 | 3.2 | 9.7 | 0.00 | 0.03 | 0.00 | 66 | 1009.2 |
| 20260505073008 | 18 | 179 | 0.0 | 11.3 | 0.00 | 0.03 | 0.00 | 66 | 1009.2 |
| 20260505072512 | 18 | 347 | 1.6 | 12.9 | 0.00 | 0.03 | 0.00 | 66 | 1009.4 |
| 20260505072001 | 18 | 84 | 1.6 | 12.9 | 0.00 | 0.03 | 0.00 | 66 | 1009.5 |
| 20260505071508 | 18 | 178 | 1.6 | 8.0 | 0.00 | 0.03 | 0.00 | 65 | 1009.6 |
| 20260505071013 | 18 | 245 | 0.0 | 8.0 | 0.00 | 0.03 | 0.00 | 65 | 1009.7 |
| 20260505070511 | 18 | 81 | 1.6 | 8.0 | 0.00 | 0.03 | 0.00 | 65 | 1009.9 |
| 20260505070021 | 18 | 128 | 1.6 | 8.0 | 0.00 | 0.03 | 0.00 | 64 | 1010.0 |
| 20260505065521 | 18 | 120 | 0.0 | 12.9 | 0.00 | 0.03 | 0.00 | 64 | 1010.1 |
| 20260505065024 | 18 | 143 | 3.2 | 12.9 | 0.00 | 0.03 | 0.00 | 63 | 1010.2 |
| 20260505064531 | 18 | 129 | 0.0 | 6.4 | 0.00 | 0.03 | 0.00 | 63 | 1010.3 |
| 20260505064036 | 19 | 142 | 0.0 | 8.0 | 0.00 | 0.03 | 0.00 | 63 | 1010.3 |
| 20260505063544 | 19 | 161 | 1.6 | 8.0 | 0.00 | 0.03 | 0.00 | 63 | 1010.4 |
| 20260505063051 | 19 | 124 | 0.0 | 9.7 | 0.00 | 0.03 | 0.00 | 62 | 1010.3 |
| 20260505062557 | 19 | 153 | 1.6 | 9.7 | 0.00 | 0.03 | 0.00 | 62 | 1010.4 |
| 20260505062103 | 19 | 262 | 0.0 | 9.7 | 0.00 | 0.03 | 0.00 | 62 | 1010.5 |
| 20260505061510 | 19 | 190 | 0.0 | 9.7 | 0.00 | 0.03 | 0.00 | 62 | 1010.3 |
| 20260505061014 | 19 | 168 | 0.0 | 6.4 | 0.00 | 0.03 | 0.00 | 62 | 1010.5 |
| 20260505060517 | 19 | 207 | 0.0 | 9.7 | 0.00 | 0.03 | 0.00 | 61 | 1010.6 |
| 20260505060104 | 19 | 88 | 1.6 | 9.7 | 0.00 | 0.03 | 0.00 | 61 | 1010.6 |
| 20260505055507 | 19 | 187 | 0.0 | 8.0 | 0.00 | 0.03 | 0.00 | 61 | 1010.5 |
| 20260505055011 | 19 | 141 | 0.0 | 6.4 | 0.00 | 0.03 | 0.00 | 61 | 1010.6 |
| 20260505054605 | 20 | 160 | 0.0 | 8.0 | 0.00 | 0.03 | 0.00 | 61 | 1010.5 |
| 20260505054006 | 20 | 174 | 1.6 | 8.0 | 0.00 | 0.03 | 0.00 | 60 | 1010.5 |
| 20260505053511 | 20 | 128 | 0.0 | 9.7 | 0.00 | 0.03 | 0.00 | 60 | 1010.6 |
| 20260505053107 | 20 | 70 | 3.2 | 9.7 | 0.00 | 0.03 | 0.00 | 60 | 1010.5 |
| 20260505052510 | 20 | 113 | 1.6 | 11.3 | 0.00 | 0.03 | 0.00 | 60 | 1010.6 |
| 20260505052010 | 20 | 215 | 1.6 | 11.3 | 0.00 | 0.03 | 0.00 | 60 | 1010.6 |
| 20260505051523 | 20 | 115 | 1.6 | 11.3 | 0.00 | 0.03 | 0.00 | 60 | 1010.7 |
| 20260505051022 | 20 | 206 | 4.8 | 11.3 | 0.00 | 0.03 | 0.00 | 60 | 1010.6 |
| 20260505050531 | 20 | 162 | 0.0 | 11.3 | 0.00 | 0.03 | 0.00 | 60 | 1010.7 |
| 20260505041603 | 20 | 153 | 3.2 | 12.9 | 0.00 | 0.03 | 0.03 | 59 | 1010.8 |
| 20260505041056 | 20 | 200 | 1.6 | 12.9 | 0.00 | 0.03 | 0.03 | 59 | 1010.8 |
| 20260505040604 | 20 | 186 | 1.6 | 9.7 | 0.00 | 0.03 | 0.03 | 59 | 1010.8 |
| 20260505040059 | 20 | 170 | 3.2 | 11.3 | 0.00 | 0.03 | 0.03 | 58 | 1010.8 |
| 20260505035606 | 20 | 106 | 3.2 | 11.3 | 0.00 | 0.03 | 0.03 | 58 | 1010.8 |
| 20260505035002 | 20 | 142 | 1.6 | 9.7 | 0.00 | 0.03 | 0.03 | 58 | 1010.6 |
| 20260505034510 | 20 | 143 | 3.2 | 9.7 | 0.00 | 0.03 | 0.03 | 58 | 1010.7 |
| 20260505034016 | 21 | 159 | 1.6 | 14.5 | 0.00 | 0.03 | 0.03 | 57 | 1010.8 |
| 20260505033522 | 21 | 106 | 4.8 | 14.5 | 0.00 | 0.03 | 0.03 | 57 | 1010.7 |
| 20260505033027 | 21 | 98 | 1.6 | 9.7 | 0.00 | 0.03 | 0.03 | 57 | 1010.7 |
| 20260505032535 | 21 | 87 | 1.6 | 11.3 | 0.00 | 0.03 | 0.03 | 56 | 1010.7 |
| 20260505032040 | 21 | 199 | 1.6 | 16.1 | 0.00 | 0.03 | 0.03 | 56 | 1010.8 |
| 20260505031549 | 21 | 134 | 3.2 | 16.1 | 0.00 | 0.03 | 0.03 | 56 | 1010.7 |
| 20260505031054 | 21 | 176 | 3.2 | 14.5 | 0.00 | 0.03 | 0.03 | 56 | 1010.5 |
| 20260505030603 | 21 | 147 | 4.8 | 9.7 | 0.00 | 0.03 | 0.03 | 56 | 1010.6 |
| 20260505030002 | 21 | 160 | 1.6 | 11.3 | 0.00 | 0.03 | 0.03 | 56 | 1010.5 |
| 20260505025558 | 21 | 182 | 1.6 | 11.3 | 0.00 | 0.03 | 0.03 | 56 | 1010.6 |
| 20260505025104 | 21 | 126 | 3.2 | 9.7 | 0.00 | 0.03 | 0.03 | 56 | 1010.5 |
| 20260505024507 | 21 | 137 | 3.2 | 11.3 | 0.00 | 0.03 | 0.03 | 55 | 1010.5 |
| 20260505024100 | 21 | 180 | 1.6 | 11.3 | 0.00 | 0.03 | 0.03 | 55 | 1010.4 |
| 20260505023503 | 21 | 49 | 1.6 | 8.0 | 0.00 | 0.03 | 0.03 | 55 | 1010.4 |
| 20260505023006 | 21 | 203 | 1.6 | 9.7 | 0.00 | 0.03 | 0.03 | 54 | 1010.4 |
| 20260505022602 | 21 | 231 | 3.2 | 9.7 | 0.00 | 0.03 | 0.03 | 54 | 1010.3 |
| 20260505022025 | 21 | 188 | 0.0 | 9.7 | 0.00 | 0.03 | 0.03 | 54 | 1010.3 |